Probability
19 20 21 23 22 19 16 14 14 12 11 9 7 7 8 9 7 5 6 8 10 11 9 9 10 12 13 14 16 19 18 16 15 13 12 12 11 7 3 1 1 1 1
17 20 22 24 23 22 20 18 16 15 12 11 10 10 11 11 9 6 6 7 9 10 10 9 10 11 13 14 16 16 15 14 14 13 12 12 11 8 4 2 1 0 0
17 19 22 24 25 25 25 22 19 16 14 12 12 13 13 13 11 9 7 7 8 10 10 10 10 12 14 15 15 14 13 13 14 14 12 11 9 6 3 1 0 0 0
23 24 25 26 27 26 26 24 21 18 16 16 17 16 14 14 12 10 8 8 9 11 11 12 13 15 16 17 16 15 14 15 16 15 13 10 6 3 1 0 0 0 0
31 30 29 29 31 30 27 25 23 21 20 22 22 20 16 14 11 9 8 10 12 15 16 18 18 19 18 17 14 12 12 15 17 16 14 10 6 4 2 1 0 0 0
36 34 32 31 32 32 30 28 27 26 25 26 27 24 20 14 8 6 7 11 16 21 23 24 23 22 20 16 10 6 7 10 13 15 14 12 9 8 6 3 1 0 0
40 38 35 32 32 33 34 33 33 33 33 32 31 30 25 15 7 3 4 10 18 24 25 25 25 24 23 19 13 9 8 8 10 13 14 14 14 14 12 7 2 0 0
44 42 38 36 35 37 38 37 37 38 39 38 36 34 29 18 10 4 3 10 18 23 24 25 25 24 23 21 18 17 15 12 9 9 11 13 13 13 12 9 4 1 0
44 42 38 37 39 40 40 39 39 40 40 39 37 35 29 21 13 6 5 13 20 22 22 23 22 21 18 17 19 19 18 16 11 8 7 7 7 7 8 8 5 2 0
44 41 38 39 40 41 42 41 39 39 38 36 34 31 28 23 16 8 7 15 21 22 21 20 19 16 13 12 15 16 16 15 14 11 8 6 5 5 4 6 7 4 2
47 44 41 40 41 42 43 43 41 39 37 35 32 30 29 26 19 11 8 13 20 22 21 19 17 13 9 8 10 13 13 13 13 13 12 10 10 8 6 7 9 8 6
51 47 42 41 42 43 42 42 40 37 34 32 30 29 31 29 23 15 8 8 14 20 22 20 16 11 6 4 5 7 8 8 9 11 12 13 13 10 9 10 11 10 10
51 48 42 39 40 41 39 36 33 31 29 27 28 29 30 30 25 18 11 6 7 13 18 17 12 8 6 4 3 3 4 6 8 10 13 14 13 11 11 10 9 9 9
51 48 41 35 34 35 34 29 25 24 24 25 27 28 29 29 25 19 14 11 7 9 13 13 10 7 7 7 6 5 6 8 10 11 13 14 13 11 11 9 7 6 5
50 47 40 33 28 27 26 22 18 19 20 21 22 23 25 23 19 14 13 12 9 9 11 13 12 11 11 12 11 10 11 11 12 12 13 13 13 11 9 7 6 4 4
47 43 36 31 26 23 21 18 15 13 12 11 12 13 15 14 10 7 7 7 6 7 11 14 15 15 15 15 15 14 13 13 13 13 13 13 12 10 7 6 4 4 3
42 37 32 29 26 24 22 20 18 14 10 7 6 5 5 5 3 2 2 2 3 6 10 14 15 15 16 16 16 15 14 14 14 13 12 12 11 10 8 7 6 4 4
38 34 31 29 28 28 27 25 24 21 17 13 9 5 2 1 1 0 1 3 6 8 11 14 15 15 15 16 17 16 14 14 14 12 11 10 10 9 9 8 7 5 4
37 34 31 30 30 30 29 28 27 25 23 20 16 11 5 3 2 2 4 8 11 12 13 15 15 14 14 15 17 17 15 14 12 10 10 10 9 8 8 7 6 4 4
34 31 29 30 30 30 29 29 28 26 24 22 19 15 10 8 7 6 8 11 14 14 15 16 16 14 13 14 16 16 14 13 11 10 10 10 9 8 6 5 4 3 3
28 26 25 27 29 29 28 28 27 26 23 21 18 15 12 10 11 10 10 13 15 15 16 16 16 14 13 13 13 12 11 11 10 10 10 10 9 8 5 4 4 4 4
23 24 22 22 23 23 21 22 22 21 19 18 16 13 11 11 12 12 13 15 16 16 16 16 15 14 12 11 10 10 10 10 10 10 10 10 9 8 7 6 5 5 5
20 21 20 18 16 14 13 13 13 13 13 12 12 11 11 11 12 12 13 15 16 16 16 15 14 13 11 9 8 9 10 10 9 9 9 9 9 8 8 7 5 4 4
17 17 17 16 13 11 11 10 8 8 8 8 9 9 10 10 10 11 11 13 15 16 16 13 11 10 9 8 7 7 7 7 7 7 7 8 7 7 7 7 6 5 4
16 16 16 16 15 13 11 10 9 9 9 9 9 9 10 10 9 10 11 13 14 15 13 11 7 6 5 5 4 4 4 4 3 4 6 7 6 7 7 8 8 7 6
16 16 16 16 16 14 12 11 11 12 11 10 9 10 11 11 10 10 13 15 14 12 11 8 5 3 2 2 2 2 1 1 1 2 5 6 6 7 8 9 9 9 9
Wind_Speed
9 8 7 7 7 6 5 5 4 3 3 3 3 2 2 2 2 2 2 1 2 2 2 1 1 2 2 1 1 1 1 1 1 1 1 2 2 1 2 1 2 3 5
9 8 8 7 7 7 6 6 5 4 4 4 4 3 3 2 2 2 2 2 2 2 2 2 1 1 1 2 1 1 0 1 1 2 1 2 2 2 2 2 2 2 3
9 9 8 7 7 7 6 5 5 4 4 4 4 4 3 3 3 2 2 2 2 2 2 2 2 1 2 1 2 1 1 2 2 2 2 2 2 2 3 3 2 2 2
9 8 8 8 7 7 6 6 5 5 4 4 4 4 4 3 3 3 3 2 2 1 1 2 2 2 2 2 2 2 2 2 2 3 2 3 2 3 3 3 3 2 1
9 8 8 8 7 6 6 6 6 6 5 5 5 4 4 4 3 3 3 4 3 2 2 2 1 0 1 2 2 1 2 2 2 2 2 3 3 3 3 2 2 3 2
9 8 8 8 7 7 7 6 6 6 5 5 5 5 5 3 2 1 4 4 3 3 3 2 2 3 3 2 1 1 2 3 2 2 2 3 3 4 3 3 3 3 2
9 8 8 8 8 7 7 7 7 6 6 6 6 5 5 3 3 4 5 5 5 4 4 3 3 2 3 3 3 4 2 1 2 4 3 3 3 3 4 4 3 2 2
9 8 8 8 8 7 7 7 7 6 6 6 6 6 5 4 5 6 6 6 5 4 4 4 3 3 3 2 3 4 3 3 3 4 2 3 2 2 4 4 3 3 3
9 9 9 8 8 8 7 7 6 6 6 6 6 6 6 5 6 7 7 5 5 5 4 4 4 4 2 3 4 4 3 3 3 2 1 1 2 1 3 3 4 4 3
8 8 8 8 8 8 7 7 6 6 6 6 5 6 6 6 6 8 8 6 5 5 5 5 4 4 4 5 5 5 4 3 3 4 4 4 5 5 5 5 4 4 4
7 7 7 7 8 7 6 6 6 6 6 6 6 6 6 6 7 8 9 6 5 5 5 4 4 7 7 6 6 5 4 3 4 5 4 5 5 5 5 5 4 4 4
6 7 7 7 6 6 6 6 6 6 6 6 6 6 6 7 7 8 10 9 7 5 5 4 3 9 8 7 6 4 4 6 5 4 4 4 4 4 3 4 4 3 3
6 6 6 7 6 6 6 7 6 6 6 6 6 6 6 5 6 8 10 10 8 6 4 1 1 6 7 6 7 6 7 6 5 5 5 4 3 3 3 3 4 4 4
6 6 6 6 6 6 5 6 6 6 6 6 6 6 5 5 5 5 7 8 8 7 5 4 5 6 6 4 5 7 6 5 5 5 4 4 3 3 4 4 4 5 5
5 5 5 5 5 5 5 4 5 5 4 5 5 5 5 5 4 3 4 5 5 4 4 5 5 5 6 6 6 6 6 6 6 5 5 5 4 4 4 4 4 4 5
5 5 5 4 4 5 5 4 2 4 2 4 5 5 4 2 2 4 5 4 4 4 5 6 6 6 6 6 6 6 6 5 5 5 5 5 5 5 4 4 4 5 5
5 5 4 4 4 5 5 5 4 4 5 5 6 7 7 4 4 5 6 6 5 7 6 6 6 6 6 6 6 6 6 5 5 6 5 5 5 5 4 5 5 5 5
5 5 5 5 5 5 5 5 5 5 4 4 6 8 9 8 7 7 6 5 4 6 7 7 6 6 6 5 5 5 5 5 5 6 5 5 5 5 5 5 5 5 5
5 4 4 4 4 5 5 5 4 4 4 4 3 4 7 7 7 6 8 6 6 6 6 6 5 5 5 5 5 5 5 5 5 5 5 5 5 5 5 5 5 5 6
4 3 4 4 4 4 4 4 3 4 4 4 4 3 3 5 4 5 6 6 5 5 5 5 4 4 4 4 4 4 4 5 5 5 5 5 5 5 6 6 5 5 5
3 3 4 4 3 3 3 3 3 3 4 4 3 2 2 4 4 4 4 4 4 4 4 3 3 4 4 3 3 4 4 4 4 5 5 5 5 5 5 5 5 5 5
3 3 3 3 3 2 3 3 3 3 3 3 2 2 4 4 3 3 3 3 4 4 3 4 3 3 3 3 3 4 4 4 4 4 4 4 4 5 5 5 5 5 5
2 2 2 2 2 2 3 3 3 3 3 3 3 3 3 3 3 3 3 3 3 3 3 3 3 3 2 2 2 2 3 3 3 3 4 4 5 5 5 5 6 6 5
2 2 2 2 2 2 2 2 2 2 3 3 3 3 3 3 3 3 3 3 3 3 3 3 3 3 2 2 1 1 2 2 3 4 5 4 5 4 4 4 5 6 6
2 2 2 2 2 2 2 2 2 2 2 2 2 2 2 2 2 2 2 3 3 3 2 2 2 2 2 2 1 1 1 1 2 4 4 4 5 5 5 5 5 6 6
1 1 1 1 1 1 1 1 1 2 2 2 2 1 2 2 2 2 2 2 1 1 2 2 1 1 1 1 0 0 1 1 2 4 5 4 4 4 5 5 7 6 6
Wind_Direction
191 193 199 198 199 203 206 210 210 211 207 211 211 217 225 235 243 251 281 283 284 293 277 261 269 293 289 276 250 242 240 232 200 164 136 125 154 178 131 154 144 144 115
187 190 195 199 200 203 203 206 207 206 206 205 210 213 221 220 228 242 260 273 283 293 293 290 286 270 255 270 272 252 200 194 204 182 169 149 165 168 139 170 139 128 116
185 188 189 193 194 199 201 200 203 202 204 204 208 216 224 226 224 238 254 260 274 292 299 296 294 288 273 274 259 238 207 191 193 193 184 158 163 156 156 161 142 139 150
183 185 186 190 191 192 194 196 201 205 206 206 211 217 223 226 225 227 232 239 248 261 276 280 281 277 273 256 234 224 219 204 192 202 180 169 158 160 182 172 164 162 174
179 184 187 187 186 189 190 196 202 207 210 207 212 217 223 225 227 228 229 229 230 236 240 254 264 344 5 300 291 249 224 224 203 201 196 182 172 173 191 190 175 168 174
182 185 185 185 185 189 193 197 199 204 209 210 215 220 227 233 129 212 257 245 237 235 234 236 217 188 166 186 216 302 285 248 245 232 214 200 191 192 190 199 195 193 189
184 186 185 187 189 193 196 197 202 205 206 210 216 219 221 206 180 200 233 250 244 241 239 235 244 175 186 195 175 191 209 252 261 261 253 236 206 192 194 204 198 216 224
186 188 188 190 193 194 197 201 206 207 209 212 215 219 221 207 193 207 218 231 243 243 243 239 235 226 217 207 212 206 208 201 217 236 261 270 255 184 202 218 204 200 208
190 192 192 192 193 195 199 202 203 206 212 216 215 217 221 214 197 206 217 223 224 230 234 235 235 228 177 207 222 220 219 206 164 139 12 22 47 180 221 212 202 207 207
195 196 195 194 197 200 201 204 203 206 214 219 218 219 222 224 199 201 216 227 226 225 216 210 212 228 189 205 222 226 225 222 212 182 188 201 204 195 213 233 229 229 228
193 194 196 196 200 201 201 203 205 209 212 221 224 223 221 223 201 196 210 231 233 233 228 219 194 174 190 213 235 234 233 240 223 218 205 202 202 200 203 214 238 250 251
188 191 194 198 204 197 198 204 208 211 211 216 222 230 224 216 213 201 203 221 252 243 246 240 183 164 186 207 223 227 231 242 233 226 222 214 210 208 202 204 212 239 266
187 191 196 198 202 201 200 203 208 213 221 222 223 227 229 219 200 194 199 211 229 240 249 264 159 173 193 206 218 225 225 231 234 232 232 229 223 213 207 200 198 208 225
192 192 194 197 203 205 211 213 218 219 224 228 233 236 234 224 221 201 200 202 207 218 229 201 187 196 220 234 212 214 226 236 243 242 239 235 221 208 213 215 212 207 215
201 200 204 209 209 210 219 232 233 234 241 241 242 241 243 238 232 221 222 217 214 207 213 218 217 208 211 218 220 217 221 222 227 233 235 231 221 215 216 217 220 222 224
205 208 213 219 216 224 220 225 246 247 239 241 262 268 258 255 200 197 206 213 207 190 213 225 224 223 223 226 226 220 217 220 224 225 228 231 229 223 220 218 219 226 231
220 219 222 223 220 226 227 225 229 229 225 228 233 235 238 236 214 208 207 202 194 185 212 229 229 232 233 233 233 229 222 218 222 228 227 226 228 229 227 226 224 228 237
230 221 226 224 227 228 227 228 229 234 233 233 222 219 221 217 214 211 195 177 192 201 224 230 229 231 234 235 236 235 233 223 216 222 224 223 223 223 224 230 232 235 238
236 233 231 233 230 232 234 234 233 239 247 250 240 202 205 204 200 198 184 206 219 220 223 230 234 234 236 237 241 239 237 231 223 221 222 225 226 226 227 229 232 229 243
235 234 231 238 236 230 231 235 233 234 242 252 249 236 188 185 193 187 197 218 230 233 232 232 234 235 235 240 241 240 235 232 222 219 223 225 228 231 233 236 238 237 239
225 212 209 225 233 238 242 242 243 241 237 244 251 249 231 223 222 220 212 216 226 236 236 240 238 237 232 228 231 235 237 236 230 226 226 229 233 235 239 240 240 242 247
230 222 223 228 223 228 242 241 242 243 244 247 255 218 193 228 234 227 221 221 228 231 229 233 235 235 234 231 228 229 233 235 238 237 231 232 231 234 237 238 243 248 250
232 228 228 228 222 208 222 233 238 241 247 251 251 243 215 227 232 233 232 233 234 231 227 224 230 233 230 230 235 239 239 238 237 239 240 238 235 233 233 237 243 247 250
220 220 227 231 222 223 227 240 249 251 258 265 261 255 245 232 233 236 242 238 236 230 223 218 219 212 214 231 234 233 261 275 265 248 240 245 247 245 244 243 246 250 252
223 220 222 229 235 244 249 257 266 271 274 274 276 276 275 260 246 243 242 235 231 231 223 211 212 204 203 213 225 269 345 327 290 285 259 246 247 246 247 249 250 253 252
206 190 192 198 204 228 246 253 264 286 298 299 296 288 280 281 270 256 248 241 229 202 200 201 201 205 207 204 218 277 325 303 278 281 271 260 258 249 244 246 248 250 251